SL-14 R/B, 19275

Orbit data source: Space-Track

SL-14 R/B, 19275 is space debris in LEO originally from a launch on Tue, 05 Jul 1988 UTC launched from the Plesetsk Missile And Space Complex (PKMTR). Debris objects in space refer to the collection of defunct objects orbiting the Earth. Examples of debris include non-operational satellites, rocket bodies, and fragments generated from explosions, collisions, or faulty payload assembly.

Loading next visibility...
Identifier
19275, 1988-056B
Orbit
LEO
Country
Flag of CISCIS
Related business
Manufacturer
Yuzhnoe
Mission
Spacecraft
Bus & Motor
S5M, Unknown motor
Mass
1,600 kg wet, 1,600 kg dry
Launch date (UTC)
1988-07-05 (37 years ago)
Launch vehicle
Unknown
Launch site
Plesetsk Missile And Space Complex (PKMTR)
Object type
Payload
Rocket body
Debris
Shape & HBR
Cyl, 1.4 m
Radar Cross Section
7.351 m², Large (>1 m²)

Expand to show TLE details & history
Last TLE update: 15 hours ago

TLE from 15 hours ago
0 SL-14 R/B
1 19275U 88056B   25353.94391128  .00000410  00000-0  45092-4 0  9995
2 19275  82.5150 299.5132 0020403  47.5732 312.7206 14.85002852  2834
Epoch: 2025-12-19T22:39Z
TLE epoch observation values (Epoch: 2025-12-19T22:39:13.934Z)
Latitude
0.00004°
Longitude
-129.07266°
Altitude
606.953 km
Speed
7.561 km/s
True Right ascension
19h 58m 03s
True Declination
0° 00' 00"
Sunlit
Object was in daylight at epoch
Visualization orbit readout
Latitude
Unknown
Longitude
Unknown
Altitude
Unknown
Speed
Unknown
Apparent Right ascension
Unknown
Apparent Declination
Unknown
Sunlit
N/A
Visualization observer readout
Local Sidereal Time
12:39:39
Azimuth
Unknown
Elevation
Unknown
Doppler factor
Unknown
Orbital elements
Apogee altitude
624.852 km
Perigee altitude
596.334 km
Semi-major axis
6,988.73 km
Eccentricity
0.00204
Inclination
82.515°
RAAN
299.5132°
Arg. of periapsis
47.5732°
True anomaly
312.54854°
Mean anomaly
312.7206°
Eccentric anomaly
312.6346°
Mean motion
3.71489 °/min
Orbital period
96.91 mins
BSTAR
0.000045092
Loading maneuver chart data...
Computing Atmospheric mass density...
Loading historical data...
Loading historical data...
Loading historical data...
Loading historical data...
Loading historical data...
Loading historical data...
Loading historical data...
Other satellites on launch #56 in the year 1988 (1988-07-05 UTC)

Documentation

Showing up to 5 results
|